User: anonymous   Login
Location: Unspecified
(0.0000°N, 0.0000°E)
Time: 03:21:51
(UTC+02:00)
Language:

Gurwin Techsat 1B - Orbit

View from above orbital plane
View from above orbital plane
View from above satellite
View from above satellite

Ground track
Ground track

The orbit data is extracted from the following two-line orbital elements,

1 25397U 98043D   15143.84893488  .00000041  00000-0  36814-4 0  9997
2 25397 098.5178 095.0563 0002272 062.4635 323.6567 14.23545214876333
Epoch (UTC): 23 May 2015 20:22:27
Eccentricity: 0.0002272
inclination: 98.5178°
perigee height: 812 km
apogee height: 815 km
right ascension of ascending node: 95.0563°
argument of perigee: 62.4635°
revolutions per day: 14.23545214
mean anomaly at epoch: 323.6567°
orbit number at epoch: 87633

The dashed part of the orbit path shows where the satellite is in the earth's shadow,  

DLR